Weather History for Clines Corner, NM

Change the Weather History Date:

Saturday, February 16, 2013

  Actual Average (KSAF) Record (KSAF)
Temperature  
Mean Temperature 34 °F -  
Max Temperature 50 °F 0 °F 63 °F (2011)
Min Temperature 19 °F - 16 °F (1999)
Degree Days  
Heating Degree Days 30    
Moisture  
Dew Point 4 °F    
Average Humidity 29    
Maximum Humidity 48    
Minimum Humidity 15    
Precipitation  
Precipitation 0.00 in - - ()
Sea Level Pressure  
Sea Level Pressure 30.24 in    
Wind  
Wind Speed 18 mph (WNW)    
Max Wind Speed 30 mph    
Max Gust Speed 37 mph    
Visibility 10 miles    
Events      
Averages and records for this station are not official NWS values.
T = Trace of Precipitation, MM = Missing Value Source: NWS Daily Summary

Daily Weather History Graph

Daily Weather History Graph

Search for Another Location

Airport:

Trip Planner

Search our weather history database for the weather conditions in past years. The results will help you decide how hot, cold, wet, or windy it might be!

Date:

Astronomy

Feb. 16, 2013 Rise Set
Actual Time 6:47 AM MST 5:46 PM MST
Civil Twilight 6:21 AM MST 6:12 PM MST
Nautical Twilight 5:51 AM MST 6:42 PM MST
Astronomical Twilight 5:22 AM MST 7:11 PM MST
Moon 10:18 AM MST (2/16) No Moon Set
Length of Visible Light 11h 51m
Length of Day
10h 59m
Waxing Crescent, 40% of the Moon is Illuminated
Feb 16
Waxing Crescent
Feb 17
First Quarter
Feb 25
Full
Mar 4
Last Quarter
Mar 11
New

Hourly Weather History & Observations

Time (MST) Temp. Windchill Dew Point Humidity Pressure Visibility Wind Dir Wind Speed Gust Speed Precip Events Conditions
12:53 AM 21.9 °F 11.0 °F 3.9 °F 46% 30.34 in 10.0 mi WNW 10.4 mph - N/A   Clear
1:53 AM 19.9 °F 6.2 °F 3.0 °F 48% 30.34 in 10.0 mi WNW 15.0 mph - N/A   Clear
3:53 AM 21.9 °F 13.4 °F 1.9 °F 42% 30.34 in 10.0 mi NW 6.9 mph - N/A   Clear
4:53 AM 21.9 °F 7.3 °F 3.0 °F 44% 30.33 in 10.0 mi WNW 18.4 mph - N/A   Clear
5:53 AM 21.9 °F 6.2 °F 3.9 °F 46% 30.33 in 10.0 mi WNW 21.9 mph - N/A   Clear
6:53 AM 21.9 °F 7.3 °F 5.0 °F 48% 30.37 in 10.0 mi WNW 18.4 mph - N/A   Clear
7:53 AM 27.0 °F 12.8 °F 8.1 °F 45% 30.36 in 10.0 mi WNW 21.9 mph - N/A   Clear
8:53 AM 34.0 °F 20.5 °F 8.1 °F 34% 30.32 in 10.0 mi WNW 28.8 mph 33.4 mph N/A   Clear
9:53 AM 37.0 °F 24.9 °F 9.0 °F 31% 30.34 in 10.0 mi NW 27.6 mph 34.5 mph N/A   Clear
10:53 AM 42.1 °F 32.1 °F 6.1 °F 23% 30.30 in 10.0 mi WNW 25.3 mph 33.4 mph N/A   Clear
11:53 AM 45.0 °F 36.6 °F 3.9 °F 18% 30.28 in 10.0 mi NW 21.9 mph 32.2 mph N/A   Clear
12:53 PM 48.9 °F - 6.1 °F 18% 30.21 in 10.0 mi WNW 24.2 mph 32.2 mph N/A   Clear
1:53 PM 48.9 °F - 6.1 °F 18% 30.20 in 10.0 mi NW 24.2 mph 34.5 mph N/A   Clear
2:53 PM 50.0 °F - 7.0 °F 18% 30.15 in 10.0 mi NW 24.2 mph 31.1 mph N/A   Clear
3:53 PM 50.0 °F - 3.0 °F 15% 30.13 in 10.0 mi WNW 29.9 mph 36.8 mph N/A   Clear
4:53 PM 48.0 °F - 3.0 °F 16% 30.13 in 10.0 mi WNW 28.8 mph 36.8 mph N/A   Clear
5:53 PM 43.0 °F 34.8 °F 1.9 °F 18% 30.17 in 10.0 mi WNW 18.4 mph - N/A   Clear
6:53 PM 39.9 °F 30.2 °F 1.0 °F 20% 30.19 in 10.0 mi WNW 20.7 mph - N/A   Clear
7:53 PM 37.0 °F 27.0 °F -0.0 °F 21% 30.19 in 10.0 mi WNW 18.4 mph - N/A   Clear
8:53 PM 34.0 °F 23.8 °F -0.0 °F 24% 30.16 in 10.0 mi WNW 16.1 mph - N/A   Clear
9:53 PM 34.0 °F 26.0 °F -0.0 °F 24% 30.14 in 10.0 mi NW 10.4 mph - N/A   Clear
10:53 PM 30.0 °F 24.1 °F -0.9 °F 27% 30.12 in 10.0 mi West 5.8 mph - N/A   Clear
11:53 PM 30.9 °F 20.7 °F 1.0 °F 28% 30.07 in 10.0 mi WNW 13.8 mph - N/A   Clear